DW9572 Weather Reports


Display with metric or nautical units.
time (UTC)temp
F
wind
direction
speed
MPH
gust
MPH
rain 1hr
in
rain 24hr
in
rain mn
in
humidity
%
barometer
mb
20260906211550 69 360 6.0 10.0 0.00 0.03 0.03 44 1013.6
20260906210106 69 335 4.0 12.0 0.00 0.03 0.03 44 1013.6
20260906204531 69 359 5.0 10.0 0.00 0.03 0.03 46 1013.5
20260906203036 69 60 6.0 10.0 0.00 0.03 0.03 46 1013.6
20260906201512 69 45 6.0 11.0 0.00 0.03 0.03 45 1013.9
20260906200028 68 352 5.0 10.0 0.00 0.03 0.03 46 1013.8
20260906194652 68 325 6.0 11.0 0.00 0.03 0.03 47 1013.7
20260906193047 67 10 4.0 10.0 0.00 0.03 0.03 51 1013.9
20260906191528 65 249 6.0 19.0 0.00 0.03 0.03 62 1014.1
20260906190026 65 274 10.0 15.0 0.00 0.03 0.03 64 1014.4
20260906184507 65 29 4.0 11.0 0.00 0.03 0.03 55 1014.5
20260906183003 62 222 6.0 10.0 0.00 0.03 0.03 75 1014.4
20260906181546 59 249 6.0 13.0 0.00 0.03 0.03 81 1014.5
20260906180046 60 278 8.0 12.0 0.00 0.03 0.03 76 1014.7
20260906174534 61 330 1.0 4.0 0.00 0.03 0.03 71 1014.3
20260906173025 60 3 1.0 5.0 0.00 0.03 0.03 75 1014.2
20260906171505 59 349 2.0 4.0 0.00 0.03 0.03 79 1014.3
20260906170004 59 3 0.0 1.0 0.01 0.03 0.03 82 1014.6
20260906164554 58 359 2.0 2.0 0.02 0.03 0.03 81 1014.6
20260906163051 58 335 4.0 11.0 0.03 0.03 0.03 79 1014.7
20260906161529 57 318 8.0 13.0 0.03 0.03 0.03 78 1015.0
20260906160043 56 298 11.0 15.0 0.02 0.02 0.02 79 1015.1
20260906154526 55 296 9.0 17.0 0.01 0.01 0.01 80 1015.4
20260906153021 58 279 7.0 10.0 0.00 0.00 0.00 72 1015.1
20260906151519 59 335 0.0 6.0 0.00 0.00 0.00 64 1014.7
20260906150038 58 269 5.0 10.0 0.00 0.00 0.00 68 1014.7
20260906144512 60 273 3.0 6.0 0.00 0.00 0.00 62 1014.7
20260906143020 62 354 1.0 7.0 0.00 0.00 0.00 53 1014.5
20260906141604 62 345 4.0 8.0 0.00 0.00 0.00 53 1014.3
20260906140057 62 1 2.0 6.0 0.00 0.00 0.00 53 1014.2
20260906134549 62 37 3.0 6.0 0.00 0.00 0.00 53 1013.9
20260906133049 62 49 3.0 9.0 0.00 0.00 0.00 53 1013.8
20260906131546 61 5 3.0 6.0 0.00 0.00 0.00 56 1013.9
20260906130146 57 53 1.0 6.0 0.00 0.00 0.00 67 1014.0
20260906124545 56 273 3.0 10.0 0.00 0.00 0.00 73 1014.2
20260906123042 56 269 4.0 6.0 0.00 0.00 0.00 72 1014.3
20260906121518 56 284 2.0 7.0 0.00 0.00 0.00 72 1014.5
20260906120016 56 278 3.0 7.0 0.00 0.00 0.00 71 1014.5
20260906114559 59 281 7.0 10.0 0.00 0.00 0.00 65 1014.5
20260906113104 62 73 5.0 8.0 0.00 0.00 0.00 53 1014.2
20260906111546 63 11 5.0 14.0 0.00 0.00 0.00 52 1014.3
20260906110043 63 360 9.0 16.0 0.00 0.00 0.00 53 1014.2
20260906104523 62 23 7.0 12.0 0.00 0.00 0.00 55 1014.3
20260906103019 59 51 4.0 6.0 0.00 0.00 0.00 62 1014.3
20260906101557 59 79 6.0 8.0 0.00 0.00 0.00 61 1014.3
20260906100054 60 52 6.0 9.0 0.00 0.00 0.00 59 1014.4
20260906094602 60 12 11.0 16.0 0.00 0.00 0.00 58 1014.4
20260906093039 61 18 12.0 17.0 0.00 0.00 0.00 59 1014.5
20260906091518 61 13 13.0 17.0 0.00 0.00 0.00 59 1014.6
20260906090018 61 359 10.0 14.0 0.00 0.00 0.00 60 1014.6
20260906084600 60 343 11.0 13.0 0.00 0.00 0.00 62 1014.8
20260906083100 60 3 9.0 13.0 0.00 0.00 0.00 63 1014.9
20260906081551 60 357 14.0 17.0 0.00 0.00 0.00 64 1014.9
20260906080049 60 16 10.0 15.0 0.00 0.00 0.00 65 1015.1
20260906074522 60 34 11.0 15.0 0.00 0.00 0.00 63 1015.1
20260906073022 61 337 9.0 12.0 0.00 0.00 0.00 59 1015.3
20260906071504 61 18 10.0 17.0 0.00 0.00 0.00 61 1015.3
20260906070003 60 357 11.0 15.0 0.00 0.00 0.00 62 1015.0
20260906064545 60 1 12.0 16.0 0.00 0.00 0.00 64 1015.2
20260906063045 60 36 8.0 14.0 0.00 0.00 0.00 61 1015.1
20260906061535 63 22 7.0 10.0 0.00 0.00 0.00 54 1014.9
20260906060028 65 16 7.0 11.0 0.00 0.00 0.00 53 1014.9
20260906054509 65 8 7.0 12.0 0.00 0.00 0.00 52 1014.8
20260906053011 65 356 8.0 11.0 0.00 0.00 0.00 53 1014.9
20260906051549 64 318 1.0 6.0 0.00 0.00 0.00 56 1015.2
20260906050100 63 304 2.0 4.0 0.00 0.00 0.00 57 1015.4
20260906044534 63 293 2.0 4.0 0.00 0.00 0.00 55 1015.3
20260906043030 64 331 0.0 3.0 0.00 0.00 0.00 55 1015.3
20260906041514 64 260 0.0 3.0 0.00 0.00 0.00 55 1015.2
20260906040012 65 340 6.0 10.0 0.00 0.00 0.00 51 1014.9
20260906034603 65 330 6.0 9.0 0.00 0.00 0.00 51 1014.9
20260906033057 65 316 4.0 6.0 0.00 0.00 0.00 51 1014.8
20260906031547 66 333 1.0 5.0 0.00 0.00 0.00 52 1014.6
20260906030037 67 316 7.0 9.0 0.00 0.00 0.00 52 1014.4
20260906024521 68 320 9.0 13.0 0.00 0.00 0.00 52 1014.4
20260906023020 69 313 8.0 10.0 0.00 0.00 0.00 51 1014.4
20260906021502 69 264 5.0 5.0 0.00 0.00 0.00 51 1014.5
20260906020106 70 259 4.0 6.0 0.00 0.00 0.00 47 1014.5
20260906020002 70 257 4.0 6.0 0.00 0.00 0.00 47 1014.4
20260906014552 72 260 6.0 10.0 0.00 0.00 0.00 45 1014.4
20260906013042 73 256 9.0 11.0 0.00 0.00 0.00 44 1014.4
20260906011524 73 218 10.0 12.0 0.00 0.00 0.00 44 1014.4
20260906010024 73 221 10.0 12.0 0.00 0.00 0.00 45 1014.4
20260906004505 74 235 10.0 14.0 0.00 0.00 0.00 45 1014.3
20260906003003 74 203 10.0 14.0 0.00 0.00 0.00 44 1014.4
20260906001544 74 267 9.0 15.0 0.00 0.00 0.00 43 1014.5
20260906000044 73 239 11.0 17.0 0.00 0.00 0.00 46 1014.5
20260905234525 73 259 13.0 19.0 0.00 0.00 0.00 47 1014.5
20260905233031 73 260 14.0 19.0 0.00 0.00 0.00 45 1014.6
20260905231507 73 244 15.0 18.0 0.00 0.00 0.00 46 1014.6
20260905230006 72 215 13.0 18.0 0.00 0.00 0.00 47 1014.6
20260905224610 71 207 9.0 14.0 0.00 0.00 0.00 51 1014.6
20260905223051 72 260 13.0 17.0 0.00 0.00 0.00 49 1014.8
20260905221550 75 222 8.0 12.0 0.00 0.00 0.00 38 1015.1
20260905220046 74 205 3.0 9.0 0.00 0.00 0.00 39 1015.1
20260905214544 73 146 4.0 7.0 0.00 0.00 0.00 40 1015.4
20260905213041 73 156 5.0 10.0 0.00 0.00 0.00 40 1015.5